Regional Weather Roundup
Issued by NWS

Home | Current Version | Previous Version | Text Only | Print | Product List | Glossary Off
Versions: 1 2 3 4 5 6 7 8 9 10 11 12 13 14 15 16 17 18 19 20 21 22 23 24 25 26 27 28 29 30 31 32 33 34 35 36 37 38 39 40 41 42 43 44 45 46 47 48 49 50

000
ASUS44 KMEG 271210
RWRTN
TENNESSEE HOURLY STATE WEATHER ROUNDUP
NATIONAL WEATHER SERVICE MEMPHIS TN
700 AM CDT TUE SEP 27 2016

TNZ002-004-019-021-049-052-054-088>092-271300-
WEST TENNESSEE

CITY           SKY/WX    TMP DP  RH WIND       PRES   REMARKS
MEMPHIS INTL   PTCLDY    59  56  89 N5        30.06S
NWS MEMPHIS      N/A     55 N/A N/A MISG        N/A
JACKSON        CLEAR    N/A N/A N/A W3        30.06S
DYERSBURG      CLEAR    N/A N/A N/A MISG        N/A
UNION CITY       N/A     45  45 100 CALM      30.04F VSB 1/2
PARIS            N/A     43  43 100 CALM      30.06S
HUNTINGDON     FOG       46  46 100 CALM      30.04F VSB 1/4
LEXINGTON      MOCLDY    52  52 100 N3        30.05R
$$

TNZ008-025-027-028-033-062-065-066-271300-
NORTH MIDDLE TENNESSEE

CITY           SKY/WX    TMP DP  RH WIND       PRES   REMARKS
NASHVILLE      PTCLDY    56  52  86 CALM      30.06S
PORTLAND       CLEAR     46  46 100 CALM      30.06S
CLARKSVILLE    LGT RAIN  46  44  93 CALM      30.05F VSB 1/4
SMYRNA         PTCLDY    54  53  97 CALM      30.06S
COOKEVILLE     CLOUDY    61  55  82 CALM      30.04S
GALLATIN       CLEAR     48  48 100 CALM      30.08F FOG
CROSSVILLE     PTCLDY    57  52  83 NE3       30.06S
$$

TNZ061-075-076-078-094-096-097-271300-
SOUTH MIDDLE TENNESSEE

CITY           SKY/WX    TMP DP  RH WIND       PRES   REMARKS
FAYETTEVILLE   CLOUDY    63  55  77 N8        30.02F
TULLAHOMA      CLOUDY    61  46  59 N6        30.04F
WINCHESTER     CLOUDY    63  57  82 N3        30.04R
MCMINNVILLE    MOCLDY    61  54  77 CALM      30.05S
COLUMBIA       CLEAR    N/A N/A N/A CALM      30.03F
SHELBYVILLE    CLEAR     57  55  94 CALM      30.05F
$$

TNZ017-018-042-046-047-271300-
NORTHEAST TENNESSEE

CITY           SKY/WX    TMP DP  RH WIND       PRES   REMARKS
TRI CITIES     CLOUDY    65  62  90 N3        30.02R
ELIZABETHTON   DRIZZLE   66  66 100 CALM      30.00S
$$

TNZ012-013-036-069-073-074-271300-
CENTRAL EAST TENNESSEE

CITY           SKY/WX    TMP DP  RH WIND       PRES   REMARKS
KNOXVILLE      LGT RAIN  62  57  83 N8        30.01S
OAK RIDGE      CLOUDY    63  55  75 E3        30.03S
DOWNTOWN KNOXV CLOUDY    64  59  82 CALM      30.02S
GATLINBURG     CLOUDY    64  63  94 CALM      30.01R
MORRISTOWN     CLOUDY    64  61  88 CALM      30.01S
JACKSBORO      MOCLDY    59  48  67 CALM      30.07S
$$

TNZ083-085-099-271300-
SOUTHEAST TENNESSEE

CITY           SKY/WX    TMP DP  RH WIND       PRES   REMARKS
CHATTANOOGA    CLOUDY    70  65  84 NE6       30.00R
$$

SKY/WX REPORTED AS FAIR MEANS FEW OR NO CLOUDS BELOW
12 THOUSAND FEET.




USA.gov is the U.S. government's official web portal to all federal, state and local government web resources and services.